Tracking 18840 objects as of 18-November-2017
HD Live streaming from Space Station
objects crossing your sky now

FENGYUN 1C DEB

Track FENGYUN 1C DEB now!
10-day predictions


NORAD ID: 30810
Int'l Code: 1999-025AUU
Perigee: 810.1 km
Apogee: 1,149.9 km
Inclination: 98.7 °
Period: 104.5 minutes
Semi major axis: 7351 km
RCS: 0.0155 m2 (small)
Launch date: May 10, 1999
Source: People's Republic of China (PRC)
Launch site: Taiyaun Space Center, China (TSC)

Note: This is SATELLITE DEBRIS
aabbcc
Your satellite tracking list
Your tracking list is empty




NASA's NSSDC Master Catalog

Two Line Element Set (TLE):
1 30810U 99025AUU 17321.51509229 +.00001723 +00000-0 +14524-2 0  9995
2 30810 098.7101 312.5928 0231149 159.3002 201.7704 13.77472105535922
Source of the keplerian elements: AFSPC